DateTimeUTC,F1_A11,F1_S11,BsB_S11,BsG_S11,BsR_S11,BbsB_S11,BbsG_S11,BbsR_S11,BaB_A11,BaG_A11,BaR_A11,Tu_S11,T_S11,Uu_S11,U_S11,P_S11,T1_A11
2021-11-20T15:00:00Z,00000200,21000000,,,,,,,-000.18,0000.20,0000.23,18.1,25.0,,00.0,0640.2,30.8
2021-11-20T15:01:00Z,00000200,21000000,,,,,,,-000.05,-000.25,-000.21,18.1,25.0,,00.0,0640.2,30.8
2021-11-20T15:02:00Z,00000200,21000000,,,,,,,0000.02,0000.01,-000.01,18.1,25.0,,00.0,0640.2,30.8
2021-11-20T15:03:00Z,00000200,61000000,,,,,,,0000.47,0000.39,0000.59,18.1,25.1,,00.0,0640.2,30.8
2021-11-20T15:04:00Z,00000200,41000000,-000.32,0000.06,-000.11,0000.10,-000.02,-000.12,-000.14,0000.06,-000.42,18.2,24.9,,00.0,0641.0,30.8
2021-11-20T15:05:00Z,00000200,01000000,0000.19,0000.08,-000.22,-000.01,-000.00,-000.07,0000.18,-000.02,0000.08,18.3,24.9,,00.0,0641.0,30.8
2021-11-20T15:06:00Z,00000200,01000000,-000.57,0000.14,-000.42,-000.58,-000.20,-000.33,-000.08,0000.11,0000.17,18.3,24.9,,00.0,0641.0,30.8
2021-11-20T15:07:00Z,00000200,01000000,0000.22,0000.16,0000.05,-000.00,-000.03,-000.04,-000.05,-000.02,0000.01,18.4,24.8,,00.0,0641.0,30.8
2021-11-20T15:08:00Z,00000200,01000000,-000.56,0000.35,0000.07,-000.60,0000.09,-000.09,0000.31,0000.08,0000.02,18.4,24.8,,00.0,0641.0,30.8
2021-11-20T15:09:00Z,00000200,01000000,0000.54,0000.20,-000.13,0000.11,-000.18,-000.18,0000.35,0000.62,0000.18,18.4,24.9,,00.0,0641.0,30.8
2021-11-20T15:10:00Z,00000200,01000000,0000.36,0000.01,-000.29,0000.07,-000.03,-000.16,-000.04,-000.23,0000.24,18.5,24.9,,00.0,0640.9,30.8
2021-11-20T15:11:00Z,00000200,01000000,-000.27,0000.29,-000.35,0000.48,-000.04,0000.25,0000.40,0000.14,-000.02,18.5,24.9,,00.0,0640.9,30.8
2021-11-20T15:12:00Z,00000200,01000000,-000.09,-000.02,-000.23,-000.12,-000.31,-000.07,0000.09,0000.18,0000.18,18.5,24.9,,00.0,0640.9,30.8
2021-11-20T15:13:00Z,00000200,01000000,0000.09,0000.23,0000.05,0000.03,-000.61,-000.16,0000.35,0000.30,0000.02,18.5,24.9,,00.0,0640.7,30.8
2021-11-20T15:14:00Z,00000200,01000000,-000.05,0000.29,0000.05,-000.33,0000.02,0000.01,0000.08,-000.02,0000.48,18.6,24.9,,00.0,0640.7,30.8
2021-11-20T15:15:00Z,00000200,01000000,0000.15,0000.23,-000.07,-000.33,0000.15,0000.13,0000.21,0000.23,0000.16,18.6,24.9,,00.0,0640.7,30.8
2021-11-20T15:16:00Z,00000200,01000000,0000.38,-000.06,0000.26,0000.60,0000.02,-000.05,0000.21,0000.34,-000.08,18.5,24.9,,00.0,0640.6,30.8
2021-11-20T15:17:00Z,00000200,01000000,0000.30,0000.28,-000.02,0000.37,-000.12,0000.00,0000.14,0000.28,0000.06,18.4,24.9,,00.0,0640.6,30.8
2021-11-20T15:18:00Z,00000200,01000000,-000.07,0000.12,-000.17,0000.15,0000.10,0000.12,0000.29,0000.51,0000.50,18.3,24.8,,00.0,0640.5,30.8
2021-11-20T15:19:00Z,00000200,01000000,0000.17,-000.24,0000.10,-000.47,-000.47,-000.06,0000.20,0000.18,0000.32,18.3,24.8,,00.0,0640.6,30.7
2021-11-20T15:20:00Z,00000200,01000000,-000.32,0000.35,-000.07,0000.13,0000.16,-000.07,0000.45,-000.09,-000.10,18.3,24.8,,00.0,0640.6,30.8
2021-11-20T15:21:00Z,00000200,01000000,0000.23,0000.27,-000.47,0000.19,-000.26,-000.09,-000.27,-000.05,-000.06,18.3,24.8,,00.0,0640.6,30.8
2021-11-20T15:22:00Z,00000200,01000000,-000.68,0000.27,-000.09,-000.39,-000.28,-000.06,-000.14,0000.02,0000.26,18.4,24.8,,00.0,0640.6,30.8
2021-11-20T15:23:00Z,00000200,01000000,-000.14,-000.09,0000.12,0000.47,-000.03,0000.03,0000.27,-000.01,-000.02,18.4,24.8,,00.0,0640.6,30.8
2021-11-20T15:24:00Z,00000200,01000000,0000.48,0000.11,-000.32,0000.02,-000.08,0000.19,0000.27,0000.30,0000.24,18.4,24.8,,00.0,0640.6,30.8
2021-11-20T15:25:00Z,00000200,01000000,-000.34,0000.25,-000.17,0000.06,0000.23,-000.12,0000.13,0000.18,-000.19,18.5,24.8,,00.0,0640.6,30.8
2021-11-20T15:26:00Z,00000200,01000000,-000.23,0000.17,0000.10,-000.19,-000.11,-000.04,0000.36,0000.24,0000.38,18.5,24.8,,00.0,0640.6,30.8
2021-11-20T15:27:00Z,00000200,01000000,-000.12,0000.38,-000.10,0000.16,0000.14,0000.45,0000.28,0000.24,0000.46,18.5,24.8,,00.0,0640.6,30.8
2021-11-20T15:28:00Z,00000200,01000000,0000.12,0000.33,-000.04,-000.19,0000.05,0000.10,-000.26,-000.20,-000.20,18.5,24.9,,00.0,0640.6,30.8
2021-11-20T15:29:00Z,00000200,01000000,0000.16,0000.20,-000.20,0000.11,0000.12,-000.11,0000.08,0000.18,0000.03,18.6,24.9,,00.0,0640.6,30.8
2021-11-20T15:30:00Z,00000200,01000000,-000.42,-000.01,0000.12,0000.27,0000.01,0000.22,0000.31,-000.13,0000.22,18.5,24.9,,00.0,0640.5,30.8
2021-11-20T15:31:00Z,00000200,01000000,0000.44,-000.04,-000.02,0000.14,-000.23,-000.09,-000.05,-000.00,-000.40,18.4,24.8,,00.0,0640.5,30.8
2021-11-20T15:32:00Z,00000200,01000000,-000.37,0000.36,0000.18,-000.67,-000.21,0000.16,0000.10,0000.42,0000.35,18.3,24.8,,00.0,0640.5,30.7
2021-11-20T15:33:00Z,00000200,01000000,0000.21,0000.33,-000.41,0000.33,-000.36,-000.20,0000.22,0000.30,0000.19,18.2,24.7,,00.0,0640.5,30.7
2021-11-20T15:34:00Z,00000200,01000000,-000.01,0000.20,-000.03,-000.81,-000.13,-000.22,0000.17,0000.03,-000.13,18.2,24.7,,00.0,0640.5,30.7
2021-11-20T15:35:00Z,00000200,01000000,0000.13,0000.06,0000.15,-000.19,-000.12,0000.32,0000.30,0000.10,-000.11,18.2,24.7,,00.0,0640.5,30.7
2021-11-20T15:36:00Z,00000200,01000000,-000.16,0000.45,-000.20,-000.09,-000.21,-000.18,0000.17,0000.12,0000.54,18.2,24.7,,00.0,0640.5,30.7
2021-11-20T15:37:00Z,00000200,01000000,0000.39,0000.24,-000.03,-000.28,-000.16,0000.00,0000.13,0000.14,0000.09,18.3,24.7,,00.0,0640.5,30.8
2021-11-20T15:38:00Z,00000200,01000000,-000.20,0000.05,-000.19,0000.04,-000.10,-000.13,0000.19,0000.04,0000.15,18.3,24.7,,00.0,0640.5,30.8
2021-11-20T15:39:00Z,00000200,01000000,0000.60,0000.18,0000.22,0000.07,0000.06,0000.11,-000.08,0000.31,0000.10,18.4,24.7,,00.0,0640.4,30.8
2021-11-20T15:40:00Z,00000200,01000000,0000.27,-000.07,-000.06,-000.27,-000.18,0000.24,0000.17,0000.10,0000.08,18.4,24.7,,00.0,0640.4,30.8
2021-11-20T15:41:00Z,00000200,01000000,-000.48,0000.34,-000.10,-000.37,-000.23,0000.46,0000.47,0000.02,0000.37,18.4,24.7,,00.0,0640.5,30.8
2021-11-20T15:42:00Z,00000200,01000000,0000.11,0000.32,0000.45,0000.03,0000.27,0000.15,0000.05,0000.47,-000.18,18.4,24.7,,00.0,0640.4,30.8
2021-11-20T15:43:00Z,00000200,01000000,-000.03,-000.11,-000.06,-000.12,-000.03,0000.04,0000.07,-000.01,0000.09,18.5,24.7,,00.0,0640.4,30.8
2021-11-20T15:44:00Z,00000200,01000000,0000.66,0000.09,-000.23,-000.75,0000.13,-000.05,0000.03,0000.07,0000.16,18.5,24.7,,00.0,0640.4,30.8
2021-11-20T15:45:00Z,00000200,01000000,0000.38,0000.04,0000.17,0000.14,-000.08,0000.10,0000.23,0000.41,0000.38,18.5,24.7,,00.0,0640.3,30.8
2021-11-20T15:46:00Z,00000200,01000000,-000.36,0000.24,-000.01,-000.11,-000.00,-000.09,0000.33,0000.10,0000.01,18.6,24.8,,00.0,0640.3,30.8
2021-11-20T15:47:00Z,00000200,01000000,0000.09,0000.04,0000.21,0000.12,-000.10,0000.16,0000.32,-000.09,0000.10,18.6,24.8,,00.0,0640.2,30.8
2021-11-20T15:48:00Z,00000200,01000000,0000.39,0000.03,-000.09,0000.21,0000.19,-000.04,0000.26,0000.41,0000.15,18.5,24.8,,00.0,0640.2,30.8
2021-11-20T15:49:00Z,00000200,01000000,0000.15,0000.07,-000.03,-000.41,-000.31,0000.09,-000.07,0000.27,0000.49,18.5,24.8,,00.0,0640.2,30.8
2021-11-20T15:50:00Z,00000200,01000000,0000.52,-000.23,0000.02,0000.30,-000.03,-000.03,0000.29,0000.19,-000.20,18.5,24.8,,00.0,0640.2,30.8
2021-11-20T15:51:00Z,00000200,01000000,-000.07,0000.12,0000.17,0000.12,-000.02,-000.03,-000.03,0000.17,0000.12,18.5,24.8,,00.0,0640.1,30.8
2021-11-20T15:52:00Z,00000200,01000000,0000.38,0000.01,-000.16,0000.24,-000.20,0000.02,0000.32,-000.01,0000.09,18.5,24.8,,00.0,0640.1,30.8
2021-11-20T15:53:00Z,00000200,01000000,-000.03,0000.09,-000.29,-000.32,-000.02,0000.04,0000.41,0000.08,0000.16,18.6,24.8,,00.0,0640.1,30.8
2021-11-20T15:54:00Z,00000200,01000000,0000.40,-000.01,0000.00,0000.01,-000.01,0000.36,0000.21,0000.16,0000.35,18.6,24.8,,00.0,0640.1,30.8
2021-11-20T15:55:00Z,00000200,01000000,-001.22,0000.14,-000.12,-000.59,-000.11,-000.06,-000.13,0000.40,-000.08,18.6,24.8,,00.0,0640.0,30.8
2021-11-20T15:56:00Z,00000200,01000000,0000.64,0000.26,0000.26,-000.19,-000.18,-000.07,0000.23,-000.23,0000.24,18.7,24.8,,00.0,0640.0,30.8
2021-11-20T15:57:00Z,00000200,41000000,,,,,,,-000.23,0000.12,-000.58,18.7,24.9,,00.0,0639.9,30.8
2021-11-20T15:58:00Z,00000200,61000000,,,,,,,0000.22,-000.14,0000.15,18.4,25.0,,00.0,0639.1,30.8
2021-11-20T15:59:00Z,00000200,21000000,,,,,,,0000.03,0000.14,0000.43,18.4,25.1,,00.0,0639.0,30.8
